This is the latest recevied weather packets stored in our database for station/object KC4GS-13. If no packets are shown the sender has not sent any weather packets the latest 10 day(s).
| Time | Temp. | Humidity | Pressure | Rain* | Wind** | Luminosity | Snow |
|---|---|---|---|---|---|---|---|
| 1787518447 | 37.22° C | 43% | 1013.9 hPa | 0 mm | - | 544 W/m² | - |
| 1787518141 | 36.67° C | 43% | 1013.9 hPa | 0 mm | - | 557 W/m² | - |
| 1787517837 | 37.22° C | 42% | 1013.8 hPa | 0 mm | - | 565 W/m² | - |
| 1787517534 | 37.22° C | 42% | 1014.2 hPa | 0 mm | - | 580 W/m² | - |
| 1787517230 | 37.22° C | 42% | 1014.2 hPa | 0 mm | - | 573 W/m² | - |
| 1787516929 | 37.22° C | 42% | 1014 hPa | 0 mm | - | 577 W/m² | - |
| 1787516624 | 37.22° C | 41% | 1014.2 hPa | 0 mm | - | 579 W/m² | - |
| 1787516319 | 36.67° C | 42% | 1014.5 hPa | 0 mm | - | 584 W/m² | - |
| 1787516014 | 36.67° C | 42% | 1014.3 hPa | 0 mm | - | 578 W/m² | - |
| 1787515710 | 36.67° C | 42% | 1014.2 hPa | 0 mm | - | 594 W/m² | - |
| 1787515404 | 36.67° C | 43% | 1014.2 hPa | 0 mm | - | 626 W/m² | - |
| 1787515099 | 36.67° C | 44% | 1014.1 hPa | 0 mm | - | 622 W/m² | - |
| 1787514796 | 36.67° C | 43% | 1014.4 hPa | 0 mm | - | 646 W/m² | - |
| 1787514492 | 36.67° C | 44% | 1014.3 hPa | 0 mm | - | 662 W/m² | - |
| 1787514187 | 36.67° C | 44% | 1014.3 hPa | 0 mm | - | 672 W/m² | - |
| 1787513881 | 36.67° C | 44% | 1014.7 hPa | 0 mm | - | 676 W/m² | - |
| 1787513577 | 36.67° C | 45% | 1014.4 hPa | 0 mm | - | 675 W/m² | - |
| 1787513273 | 36.11° C | 44% | 1014.5 hPa | 0 mm | - | 651 W/m² | - |
| 1787512969 | 36.11° C | 45% | 1014.3 hPa | 0 mm | - | 668 W/m² | - |
| 1787512664 | 35.56° C | 48% | 1014.6 hPa | 0 mm | - | 384 W/m² | - |
| 1787512354 | 35.56° C | 47% | 1014.9 hPa | 0 mm | - | 694 W/m² | - |
| 1787512050 | 34.44° C | 48% | 1014.8 hPa | 0 mm | - | 688 W/m² | - |
| 1787511745 | 35° C | 48% | 1014.9 hPa | 0 mm | - | 140 W/m² | - |
| 1787511444 | 35° C | 49% | 1014.7 hPa | 0 mm | - | 183 W/m² | - |
| 1787511144 | 35° C | 49% | 1015 hPa | 0 mm | - | 169 W/m² | - |
* Rain latest hour (hover to see other rain measurements)
** Current wind speed in m/s (hover to see current wind gust speed)